Terminal Aerodrome Forecast
Issued by NWS

Home | Current Version | Previous Version | Text Only | Print | Product List | Glossary On
Versions: 1 2 3 4 5 6 7 8 9 10 11 12 13 14 15 16 17 18 19 20 21 22 23 24 25 26 27 28 29
000
FTUS43 KLOT 050735 AAA
TAFORD
TAF AMD
KORD 050735Z 0508/0612 01013G21KT P6SM SCT025 BKN040
      TEMPO 0508/0511 BKN025
     FM051100 01012KT P6SM BKN050
     FM052000 04009KT P6SM FEW040
     FM060100 VRB03KT P6SM SCT250=

USA.gov is the U.S. government's official web portal to all federal, state and local government web resources and services.